YC0TBU-11 Weather Reports


time (UTC)temp
C
wind
direction
speed
KPH
gust
KPH
rain 1hr
cm
rain 24hr
cm
rain mn
cm
humidity
%
barometer
mb
20260506191527 36 0.0 0.0 0.00 0.00 0.00 47 1010.5
20260506184527 36 0.0 0.0 0.00 0.00 0.00 48 1010.9
20260506181527 36 0.0 0.0 0.00 0.00 0.00 47 1010.9
20260506174527 36 0.0 0.0 0.00 0.00 0.00 47 1011.2
20260506171527 36 0.0 0.0 0.00 0.00 0.00 47 1011.2
20260506164532 37 0.0 0.0 0.00 0.00 0.00 47 1011.2
20260506161510 36 0.0 0.0 0.00 0.00 0.00 47 1011.6
20260506154436 37 0.0 0.0 0.00 0.00 0.00 46 1011.4
20260506151436 37 0.0 0.0 0.00 0.00 0.00 45 1011.4
20260506144436 37 0.0 0.0 0.00 0.00 0.00 45 1011.4
20260506141436 37 0.0 0.0 0.00 0.00 0.00 44 1011.0
20260506134436 38 0.0 0.0 0.00 0.00 0.00 43 1011.0
20260506131311 37 0.0 0.0 0.00 0.00 0.00 43 1010.9
20260506124311 38 0.0 0.0 0.00 0.00 0.00 42 1010.5
20260506121311 38 0.0 0.0 0.00 0.00 0.00 41 1010.0
20260506114311 38 0.0 0.0 0.00 0.00 0.00 40 1009.5
20260506111311 39 0.0 0.0 0.00 0.00 0.00 40 1008.9
20260506104311 40 0.0 0.0 0.00 0.00 0.00 39 1008.7
20260506101311 40 0.0 0.0 0.00 0.00 0.00 37 1008.4
20260506094311 41 0.0 0.0 0.00 0.00 0.00 36 1008.1
20260506091311 41 0.0 0.0 0.00 0.00 0.00 35 1007.8
20260506084311 45 0.0 0.0 0.00 0.00 0.00 31 1007.6
20260506081311 45 0.0 0.0 0.00 0.00 0.00 30 1007.7
20260506071311 42 0.0 0.0 0.00 0.00 0.00 31 1007.9
20260506061311 42 0.0 0.0 0.00 0.00 0.00 33 1009.0
20260506051311 40 0.0 0.0 0.00 0.00 0.00 36 1010.1
20260506044311 38 0.0 0.0 0.00 0.00 0.00 39 1010.4
20260506041311 38 0.0 0.0 0.00 0.00 0.00 39 1010.9
20260506034311 38 0.0 0.0 0.00 0.00 0.00 39 1011.4
20260506031311 37 0.0 0.0 0.00 0.00 0.00 40 1011.6
20260506024355 36 0.0 0.0 0.00 0.00 0.00 42 1011.7
20260506021316 35 0.0 0.0 0.00 0.00 0.00 45 1012.0
20260506014311 35 0.0 0.0 0.00 0.00 0.00 48 1012.0
20260506011311 34 0.0 0.0 0.00 0.00 0.00 50 1012.1
20260506001315 34 0.0 0.0 0.00 0.00 0.00 49 1011.9
20260505234312 35 0.0 0.0 0.00 0.00 0.00 47 1011.7
20260505231310 35 0.0 0.0 0.00 0.00 0.00 48 1011.5
20260505224310 35 0.0 0.0 0.00 0.00 0.00 48 1011.1
20260505221310 35 0.0 0.0 0.00 0.00 0.00 48 1010.9
20260505204310 35 0.0 0.0 0.00 0.00 0.00 48 1010.7
20260505201310 35 0.0 0.0 0.00 0.00 0.00 48 1010.9
20260505194310 35 0.0 0.0 0.00 0.00 0.00 49 1011.2